Location: Unspecified
(0.0000°N, 0.0000°E)
Time: 13:55:13
(UTC+02:00)

GPS 2-12 Rocket1 - Visible Passes

Search period start: 25 July 2016 00:00
Search period end: 04 August 2016 00:00
Orbit: 587 x 654 km, 20.0° (Epoch: 24 July)

Date Brightness Start Highest point End Pass type
(mag) Time Alt. Az. Time Alt. Az. Time Alt. Az.
28 Jul 5.1 21:03:05 10° S 21:04:55 12° SSE 21:05:45 12° SSE visible
29 Jul 4.7 21:18:21 10° SSW 21:21:33 18° SSE 21:21:33 18° SSE visible
30 Jul 4.3 21:34:07 10° SW 21:37:24 27° S 21:37:24 27° S visible
31 Jul 4.1 21:50:09 10° SW 21:53:19 36° SSW 21:53:19 36° SSW visible
01 Aug 4.3 22:06:27 10° WSW 22:09:17 36° WSW 22:09:17 36° WSW visible
02 Aug 5.7 06:50:17 10° N 06:51:45 11° NNE 06:53:13 10° NE visible
02 Aug 3.6 20:39:29 10° SW 20:44:03 43° SSE 20:48:14 12° E visible
02 Aug 5.0 22:23:01 10° W 22:25:18 27° W 22:25:18 27° W visible
03 Aug 5.4 07:05:25 10° NNW 07:08:24 18° NNE 07:11:25 10° ENE visible
03 Aug 3.1 20:55:44 10° WSW 21:00:32 76° SSE 21:04:15 16° ENE visible
03 Aug 5.7 22:39:55 10° W 22:41:19 17° WNW 22:41:19 17° WNW visible
